Location: Koslow
(50.3020°N, 18.5663°E)
Time: 02:40:34
(UTC+00:00)

STARLINK-1357 - Pass Details

Date: 22 June 2021
Orbit: 546 x 548 km, 53.1° (Epoch: 03 August)

Event Time Altitude Azimuth Distance (km) Brightness Sun altitude
Exits shadow 23:28:06 11° 131° (SE) 1,720 5.8 -15.7°
Drops below altitude 10° 23:29:33 10° 110° (ESE) 1,815 6.2 -15.7°
Enters shadow 00:29:27 -67° 240° (WSW) 12,306 10.4 -12.9°
Maximum altitude 01:06:54 49° 148° (SSE) 712 4.0 -10.1°
Sets 01:13:10 0° 68° (ENE) 2,716 8.2 -9.6°
